EN

Hourly Weather Kеlang

Today, 25 July, Sunday

Time Temperature Precipitation Wind Pressure Humidity
00:00 +26°C° 0 mm 0 mps 756 mmHg 76%
01:00 +25°C° 0 mm 0 mps 756 mmHg 80%
02:00 +25°C° 0.6 mm 0 mps 756 mmHg 83%
03:00 +27°C° 0.6 mm 1 mps 756 mmHg 86%
04:00 +26°C° 0.6 mm 1 mps 755 mmHg 90%
05:00 +26°C° 0.2 mm 1 mps 756 mmHg 89%
06:00 +27°C° 0.2 mm 1 mps 756 mmHg 88%
07:00 +27°C° 0 mm 1 mps 757 mmHg 88%
08:00 +29°C° 0.2 mm 2 mps 757 mmHg 80%
09:00 +31°C° 0.2 mm 2 mps 757 mmHg 72%
10:00 +34°C° 0.2 mm 2 mps 757 mmHg 64%
11:00 +35°C° 0.3 mm 2 mps 757 mmHg 60%
12:00 +35°C° 0.3 mm 3 mps 756 mmHg 56%
13:00 +36°C° 0.3 mm 3 mps 756 mmHg 52%
14:00 +36°C° 0 mm 3 mps 755 mmHg 54%
15:00 +35°C° 0 mm 3 mps 755 mmHg 56%
16:00 +34°C° 0 mm 3 mps 754 mmHg 58%
17:00 +33°C° 0 mm 3 mps 754 mmHg 64%
18:00 +31°C° 0 mm 2 mps 754 mmHg 69%
19:00 +29°C° 0 mm 2 mps 755 mmHg 75%
20:00 +29°C° 0 mm 2 mps 755 mmHg 76%
21:00 +29°C° 0 mm 2 mps 756 mmHg 77%
22:00 +28°C° 0 mm 2 mps 756 mmHg 78%
23:00 +28°C° 0 mm 1 mps 756 mmHg 78%

Tomorrow, 26 July, Monday

Time Temperature Precipitation Wind Pressure Humidity
00:00 +28°C° 0 mm 1 mps 755 mmHg 78%
01:00 +28°C° 0 mm 1 mps 755 mmHg 78%
02:00 +27°C° 0.3 mm 1 mps 755 mmHg 81%
03:00 +27°C° 0.3 mm 1 mps 755 mmHg 83%
04:00 +26°C° 0.3 mm 1 mps 755 mmHg 86%
05:00 +27°C° 0.3 mm 1 mps 755 mmHg 86%
06:00 +27°C° 0.3 mm 1 mps 755 mmHg 86%
07:00 +27°C° 0.3 mm 1 mps 756 mmHg 87%
08:00 +29°C° 0.4 mm 1 mps 756 mmHg 80%
09:00 +30°C° 0.4 mm 1 mps 757 mmHg 74%
10:00 +32°C° 0.4 mm 2 mps 757 mmHg 67%
11:00 +34°C° 0.2 mm 2 mps 756 mmHg 62%
12:00 +35°C° 0.2 mm 2 mps 756 mmHg 56%
13:00 +36°C° 0.2 mm 3 mps 755 mmHg 50%
14:00 +35°C° 0.1 mm 2 mps 755 mmHg 56%
15:00 +34°C° 0.1 mm 2 mps 754 mmHg 61%
16:00 +32°C° 0.1 mm 2 mps 754 mmHg 66%
17:00 +31°C° 0 mm 2 mps 754 mmHg 70%
18:00 +30°C° 0 mm 1 mps 754 mmHg 74%
19:00 +29°C° 0 mm 1 mps 755 mmHg 78%
20:00 +28°C° 0 mm 1 mps 755 mmHg 79%
21:00 +28°C° 0 mm 1 mps 756 mmHg 80%
22:00 +28°C° 0 mm 1 mps 756 mmHg 81%
23:00 +28°C° 0 mm 1 mps 756 mmHg 82%

Day after tomorrow, 27 July, Tuesday

Time Temperature Precipitation Wind Pressure Humidity
00:00 +27°C° 0 mm 1 mps 755 mmHg 83%
01:00 +27°C° 0 mm 1 mps 755 mmHg 84%
02:00 +27°C° 0.1 mm 1 mps 755 mmHg 85%
03:00 +27°C° 0.1 mm 1 mps 755 mmHg 86%
04:00 +26°C° 0.1 mm 1 mps 755 mmHg 87%
05:00 +26°C° 0.4 mm 1 mps 755 mmHg 88%
06:00 +27°C° 0.4 mm 1 mps 756 mmHg 88%
07:00 +27°C° 0.4 mm 1 mps 756 mmHg 89%
08:00 +29°C° 0.2 mm 2 mps 756 mmHg 80%
09:00 +31°C° 0.2 mm 2 mps 757 mmHg 71%
10:00 +34°C° 0.2 mm 2 mps 757 mmHg 62%
11:00 +34°C° 0.1 mm 2 mps 756 mmHg 60%
12:00 +34°C° 0.1 mm 2 mps 756 mmHg 58%
13:00 +35°C° 0.1 mm 3 mps 755 mmHg 56%
14:00 +35°C° 0 mm 2 mps 754 mmHg 56%
15:00 +35°C° 0 mm 2 mps 754 mmHg 56%
16:00 +33°C° 0 mm 1 mps 753 mmHg 57%
17:00 +32°C° 0 mm 1 mps 754 mmHg 62%
18:00 +31°C° 0 mm 1 mps 754 mmHg 67%
19:00 +27°C° 0 mm 0 mps 754 mmHg 72%
20:00 +27°C° 0 mm 0 mps 755 mmHg 73%
21:00 +28°C° 0 mm 1 mps 755 mmHg 75%
22:00 +28°C° 0 mm 1 mps 756 mmHg 76%
23:00 +28°C° 0 mm 1 mps 755 mmHg 77%

28 July, Wednesday

Time Temperature Precipitation Wind Pressure Humidity
00:00 +27°C° 0 mm 1 mps 755 mmHg 78%
01:00 +27°C° 0 mm 1 mps 755 mmHg 79%
02:00 +27°C° 0.1 mm 1 mps 755 mmHg 80%
03:00 +26°C° 0.1 mm 1 mps 755 mmHg 82%
04:00 +26°C° 0.1 mm 1 mps 755 mmHg 83%
05:00 +26°C° 0.1 mm 1 mps 755 mmHg 82%
06:00 +27°C° 0.1 mm 1 mps 756 mmHg 82%
07:00 +27°C° 0.1 mm 1 mps 756 mmHg 82%
08:00 +29°C° 0.1 mm 1 mps 756 mmHg 74%
09:00 +31°C° 0.1 mm 1 mps 757 mmHg 67%
10:00 +33°C° 0.1 mm 1 mps 757 mmHg 59%
11:00 +34°C° 0.3 mm 2 mps 756 mmHg 61%
12:00 +32°C° 0.3 mm 2 mps 756 mmHg 63%
13:00 +33°C° 0.3 mm 3 mps 755 mmHg 65%
14:00 +34°C° 0.1 mm 2 mps 755 mmHg 61%
15:00 +34°C° 0.1 mm 2 mps 754 mmHg 58%
16:00 +35°C° 0.1 mm 2 mps 754 mmHg 54%
17:00 +32°C° 0 mm 1 mps 754 mmHg 60%
18:00 +31°C° 0 mm 1 mps 754 mmHg 66%
19:00 +27°C° 0 mm 0 mps 754 mmHg 72%
20:00 +27°C° 0 mm 0 mps 755 mmHg 73%
21:00 +29°C° 0 mm 1 mps 755 mmHg 74%
22:00 +29°C° 0 mm 1 mps 756 mmHg 75%
23:00 +28°C° 0 mm 1 mps 755 mmHg 76%

29 July, Thursday

Time Temperature Precipitation Wind Pressure Humidity
00:00 +28°C° 0 mm 1 mps 755 mmHg 77%
01:00 +26°C° 0 mm 0 mps 755 mmHg 77%
02:00 +27°C° 0.2 mm 1 mps 755 mmHg 79%
03:00 +27°C° 0.2 mm 1 mps 755 mmHg 80%
04:00 +27°C° 0.2 mm 2 mps 755 mmHg 82%
05:00 +27°C° 0.2 mm 2 mps 755 mmHg 83%
06:00 +27°C° 0.2 mm 2 mps 756 mmHg 83%
07:00 +27°C° 0.2 mm 2 mps 756 mmHg 84%
08:00 +29°C° 0.1 mm 2 mps 756 mmHg 78%
09:00 +30°C° 0.1 mm 3 mps 757 mmHg 72%
10:00 +33°C° 0.1 mm 3 mps 757 mmHg 65%
11:00 +33°C° 0.1 mm 3 mps 756 mmHg 62%
12:00 +34°C° 0.1 mm 3 mps 756 mmHg 59%
13:00 +35°C° 0.1 mm 3 mps 755 mmHg 56%
14:00 +34°C° 0.3 mm 3 mps 755 mmHg 59%
15:00 +34°C° 0.3 mm 3 mps 755 mmHg 62%
16:00 +33°C° 0.3 mm 3 mps 754 mmHg 64%
17:00 +31°C° 0 mm 2 mps 755 mmHg 68%
18:00 +30°C° 0 mm 2 mps 755 mmHg 72%
19:00 +29°C° 0 mm 2 mps 755 mmHg 75%
20:00 +28°C° 0.2 mm 2 mps 756 mmHg 76%
21:00 +28°C° 0.2 mm 2 mps 756 mmHg 77%
22:00 +27°C° 0.2 mm 1 mps 756 mmHg 78%
23:00 +27°C° 0.9 mm 1 mps 756 mmHg 81%

30 July, Friday

Time Temperature Precipitation Wind Pressure Humidity
00:00 +27°C° 0.9 mm 1 mps 756 mmHg 83%
01:00 +24°C° 0.9 mm 0 mps 756 mmHg 86%
02:00 +24°C° 0.2 mm 0 mps 756 mmHg 86%
03:00 +24°C° 0.2 mm 0 mps 755 mmHg 85%
04:00 +24°C° 0.2 mm 0 mps 755 mmHg 85%
05:00 +26°C° 0.2 mm 1 mps 756 mmHg 85%
06:00 +26°C° 0.2 mm 1 mps 756 mmHg 85%
07:00 +27°C° 0.2 mm 1 mps 757 mmHg 85%
08:00 +28°C° 0 mm 2 mps 757 mmHg 78%
09:00 +30°C° 0 mm 2 mps 757 mmHg 71%
10:00 +33°C° 0 mm 3 mps 757 mmHg 64%
11:00 +33°C° 0.4 mm 3 mps 757 mmHg 63%
12:00 +34°C° 0.4 mm 3 mps 756 mmHg 62%
13:00 +34°C° 0.4 mm 3 mps 756 mmHg 61%
14:00 +34°C° 0.3 mm 3 mps 755 mmHg 61%
15:00 +34°C° 0.3 mm 2 mps 755 mmHg 60%
16:00 +34°C° 0.3 mm 2 mps 755 mmHg 60%
17:00 +32°C° 0 mm 2 mps 755 mmHg 67%
18:00 +30°C° 0 mm 1 mps 755 mmHg 73%
19:00 +29°C° 0 mm 1 mps 756 mmHg 79%
20:00 +28°C° 0 mm 1 mps 756 mmHg 80%
21:00 +28°C° 0 mm 1 mps 756 mmHg 81%
22:00 +28°C° 0 mm 1 mps 757 mmHg 82%
23:00 +28°C° 0.1 mm 1 mps 756 mmHg 82%
Show more